Location: Gretna
(49.0079°N, 97.5611°W)
Time: 07:15:56
(UTC-05:00)

Envisat - Visible Passes

Search period start: 23 March 2019 00:00
Search period end: 02 April 2019 00:00
Orbit: 764 x 766 km, 98.2° (Epoch: 22 March)

Date Brightness Start Highest point End Pass type
(mag) Time Alt. Az. Time Alt. Az. Time Alt. Az.
23 Mar 5.8 21:25:52 10° SW 21:29:10 17° W 21:32:29 10° NW visible
24 Mar 4.8 20:47:27 10° SSW 20:52:03 34° W 20:56:41 10° NNW visible
26 Mar 5.6 21:14:00 10° SW 21:17:49 21° W 21:21:39 10° NW visible
27 Mar 4.4 20:35:57 10° SSW 20:40:45 42° W 20:45:36 10° NNW visible
28 Mar 6.0 21:41:30 10° WSW 21:43:42 13° W 21:45:54 10° WNW visible
29 Mar 5.3 21:02:17 10° SSW 21:06:29 26° W 21:10:43 10° NW visible
30 Mar 4.0 20:24:32 10° S 20:29:29 52° W 20:34:28 10° NNW visible
31 Mar 5.9 21:29:16 10° SW 21:32:19 16° W 21:35:23 10° NW visible
01 Apr 5.0 20:50:40 10° SSW 20:55:10 32° W 20:59:43 10° NNW visible
